Fort Meade, MD

9:48 PM EST on November 22, 2017 (GMT -0500)
Tipton

Weather History for KFME - December, 2011

Change the Weather History Date:

Monday, December 12, 2011

  Actual Average (KBWI) Record (KBWI)
Temperature  
Mean Temperature 32 °F -  
Max Temperature 44 °F 47 °F 71 °F (1979)
Min Temperature 21 °F 30 °F 10 °F (1962)
Degree Days  
Heating Degree Days 32    
Moisture  
Dew Point 25 °F    
Average Humidity 82    
Maximum Humidity 100    
Minimum Humidity 49    
Precipitation  
Precipitation 0.00 in - - ()
Sea Level Pressure  
Sea Level Pressure 30.58 in    
Wind  
Wind Speed 0 mph (SSE)    
Max Wind Speed 5 mph    
Max Gust Speed -    
Visibility 10 miles    
Events      
Averages and records for this station are not official NWS values.
T = Trace of Precipitation, MM = Missing Value Source: NWS Daily Summary

Daily Weather History Graph

Daily Weather History Graph

Search for Another Location

Airport or City:

Trip Planner

Search our weather history database for the weather conditions in past years. The results will help you decide how hot, cold, wet, or windy it might be!

Date:

Astronomy

Dec. 12, 2011 Rise Set
Actual Time 7:16 AM EST 4:44 PM EST
Civil Twilight 6:46 AM EST 5:14 PM EST
Nautical Twilight 6:13 AM EST 5:48 PM EST
Astronomical Twilight 5:40 AM EST 6:20 PM EST
Moon 6:53 PM EST (12/12) 8:47 AM EST (12/12)
Length of Visible Light 10h 27m
Length of Day
9h 28m
Waning Gibbous, 96% of the Moon is Illuminated
Dec 12
Waning Gibbous
Dec 17
Last Quarter
Dec 24
New
Jan 1
First Quarter
Jan 9
Full

Hourly Weather History & Observations

Time (EST) Temp. Windchill Dew Point Humidity Pressure Visibility Wind Dir Wind Speed Gust Speed Precip Events Conditions
12:15 AM 23.0 °F - 21.2 °F 93% 30.65 in 10.0 mi Calm Calm - N/A   Clear
12:33 AM 23.0 °F - 21.2 °F 93% 30.65 in 10.0 mi Calm Calm - N/A   Clear
12:51 AM 23.0 °F - 21.2 °F 93% 30.64 in 10.0 mi Calm Calm - N/A   Clear
1:12 AM 23.0 °F - 21.2 °F 93% 30.64 in 10.0 mi Calm Calm - N/A   Clear
1:30 AM 23.0 °F - 21.2 °F 93% 30.63 in 10.0 mi Calm Calm - N/A   Clear
2:09 AM 21.2 °F - 21.2 °F 100% 30.63 in 10.0 mi Calm Calm - N/A   Clear
2:30 AM 21.2 °F - 21.2 °F 100% 30.63 in 10.0 mi Calm Calm - N/A   Clear
2:48 AM 21.2 °F - 21.2 °F 100% 30.63 in 10.0 mi Calm Calm - N/A   Clear
3:09 AM 21.2 °F - 21.2 °F 100% 30.63 in 10.0 mi Calm Calm - N/A   Clear
3:27 AM 21.2 °F - 21.2 °F 100% 30.62 in 10.0 mi Calm Calm - N/A   Clear
3:45 AM 21.2 °F - 21.2 °F 100% 30.61 in 10.0 mi Calm Calm - N/A   Clear
4:06 AM 21.2 °F - 21.2 °F 100% 30.61 in 10.0 mi Calm Calm - N/A   Clear
4:24 AM 21.2 °F - 21.2 °F 100% 30.61 in 10.0 mi Calm Calm - N/A   Clear
4:45 AM 21.2 °F - 21.2 °F 100% 30.60 in 10.0 mi Calm Calm - N/A   Clear
5:03 AM 21.2 °F - 21.2 °F 100% 30.61 in 10.0 mi Calm Calm - N/A   Clear
5:24 AM 21.2 °F - 19.4 °F 93% 30.60 in 10.0 mi Calm Calm - N/A   Clear
5:42 AM 21.2 °F - 19.4 °F 93% 30.60 in 10.0 mi Calm Calm - N/A   Clear
6:03 AM 21.2 °F - 19.4 °F 93% 30.60 in 10.0 mi Calm Calm - N/A   Clear
6:21 AM 21.2 °F - 19.4 °F 93% 30.60 in 10.0 mi Calm Calm - N/A   Clear
6:39 AM 21.2 °F - 19.4 °F 93% 30.60 in 10.0 mi Calm Calm - N/A   Clear
7:00 AM 21.2 °F - 19.4 °F 93% 30.60 in 10.0 mi Calm Calm - N/A   Clear
7:18 AM 21.2 °F - 19.4 °F 93% 30.59 in 7.0 mi Calm Calm - N/A   Clear
7:39 AM 21.2 °F - 19.4 °F 93% 30.60 in 10.0 mi Calm Calm - N/A   Clear
7:57 AM 23.0 °F - 21.2 °F 93% 30.60 in 10.0 mi Calm Calm - N/A   Clear
8:18 AM 23.0 °F - 23.0 °F 100% 30.60 in 10.0 mi Calm Calm - N/A   Clear
8:36 AM 24.8 °F - 23.0 °F 93% 30.60 in 10.0 mi Calm Calm - N/A   Clear
8:54 AM 26.6 °F - 24.8 °F 93% 30.61 in 10.0 mi Calm Calm - N/A   Clear
9:15 AM 28.4 °F - 26.6 °F 93% 30.62 in 7.0 mi Calm Calm - N/A   Clear
9:33 AM 30.2 °F - 28.4 °F 93% 30.62 in 7.0 mi Calm Calm - N/A   Clear
9:54 AM 32.0 °F - 28.4 °F 87% 30.62 in 10.0 mi Calm Calm - N/A   Clear
10:12 AM 32.0 °F - 30.2 °F 93% 30.61 in 10.0 mi Calm Calm - N/A   Clear
10:33 AM 33.8 °F - 28.4 °F 81% 30.61 in 10.0 mi Calm Calm - N/A   Clear
10:51 AM 35.6 °F - 30.2 °F 81% 30.61 in 10.0 mi Calm Calm - N/A   Clear
11:12 AM 37.4 °F - 28.4 °F 70% 30.60 in 10.0 mi Calm Calm - N/A   Clear
11:30 AM 37.4 °F - 28.4 °F 70% 30.60 in 10.0 mi Calm Calm - N/A   Clear
11:48 AM 37.4 °F 34.9 °F 26.6 °F 65% 30.60 in 10.0 mi SSW 3.5 mph - N/A   Clear
12:09 PM 41.0 °F 39.0 °F 24.8 °F 53% 30.59 in 10.0 mi SW 3.5 mph - N/A   Clear
12:27 PM 41.0 °F 38.0 °F 23.0 °F 49% 30.57 in 10.0 mi South 4.6 mph - N/A   Clear
12:48 PM 41.0 °F 39.0 °F 24.8 °F 53% 30.57 in 10.0 mi South 3.5 mph - N/A   Clear
1:27 PM 42.8 °F - 26.6 °F 53% 30.55 in 10.0 mi Calm Calm - N/A   Clear
1:45 PM 42.8 °F - 26.6 °F 53% 30.55 in 10.0 mi Calm Calm - N/A   Clear
2:03 PM 42.8 °F - 26.6 °F 53% 30.53 in 10.0 mi Calm Calm - N/A   Clear
2:24 PM 42.8 °F - 26.6 °F 53% 30.52 in 10.0 mi Calm Calm - N/A   Clear
2:42 PM 44.6 °F - 28.4 °F 53% 30.52 in 10.0 mi Calm Calm - N/A   Clear
3:03 PM 44.6 °F - 28.4 °F 53% 30.50 in 10.0 mi Calm Calm - N/A   Clear
3:21 PM 44.6 °F - 28.4 °F 53% 30.50 in 10.0 mi Calm Calm - N/A   Clear
3:42 PM 42.8 °F - 30.2 °F 61% 30.50 in 10.0 mi Calm Calm - N/A   Clear
4:00 PM 41.0 °F - 30.2 °F 65% 30.50 in 10.0 mi Calm Calm - N/A   Clear
4:18 PM 41.0 °F - 30.2 °F 65% 30.50 in 10.0 mi Calm Calm - N/A   Clear
4:39 PM 37.4 °F - 30.2 °F 75% 30.50 in 10.0 mi Calm Calm - N/A   Clear
4:57 PM 37.4 °F - 30.2 °F 75% 30.50 in 10.0 mi Calm Calm - N/A   Clear
5:18 PM 35.6 °F 31.7 °F 30.2 °F 81% 30.50 in 10.0 mi East 4.6 mph - N/A   Clear
5:36 PM 35.6 °F 32.8 °F 28.4 °F 75% 30.50 in 10.0 mi ENE 3.5 mph - N/A   Clear
5:57 PM 33.8 °F - 28.4 °F 81% 30.50 in 10.0 mi Calm Calm - N/A   Clear
6:15 PM 32.0 °F - 28.4 °F 87% 30.50 in 10.0 mi Calm Calm - N/A   Clear
6:33 PM 32.0 °F - 28.4 °F 87% 30.50 in 10.0 mi Calm Calm - N/A   Clear
6:54 PM 32.0 °F - 28.4 °F 87% 30.50 in 10.0 mi Calm Calm - N/A   Clear
7:12 PM 32.0 °F - 28.4 °F 87% 30.50 in 10.0 mi Calm Calm - N/A   Clear
7:51 PM 30.2 °F - 28.4 °F 93% 30.51 in 10.0 mi Calm Calm - N/A   Clear
8:12 PM 30.2 °F - 28.4 °F 93% 30.51 in 10.0 mi Calm Calm - N/A   Clear
8:30 PM 30.2 °F - 28.4 °F 93% 30.50 in 10.0 mi Calm Calm - N/A   Clear
8:48 PM 30.2 °F - 28.4 °F 93% 30.50 in 10.0 mi Calm Calm - N/A   Clear
9:09 PM 30.2 °F - 28.4 °F 93% 30.50 in 10.0 mi Calm Calm - N/A   Clear
9:27 PM 28.4 °F - 28.4 °F 100% 30.50 in 10.0 mi Calm Calm - N/A   Clear
9:48 PM 28.4 °F - 26.6 °F 93% 30.50 in 10.0 mi Calm Calm - N/A   Clear
10:06 PM 28.4 °F - 26.6 °F 93% 30.50 in 10.0 mi Calm Calm - N/A   Clear
10:27 PM 28.4 °F - 26.6 °F 93% 30.50 in 10.0 mi Calm Calm - N/A   Clear
10:45 PM 28.4 °F - 26.6 °F 93% 30.50 in 10.0 mi Calm Calm - N/A   Clear
11:06 PM 26.6 °F - 26.6 °F 100% 30.50 in 10.0 mi Calm Calm - N/A   Clear
11:24 PM 26.6 °F - 26.6 °F 100% 30.50 in 10.0 mi Calm Calm - N/A   Clear
11:42 PM 26.6 °F - 26.6 °F 100% 30.49 in 10.0 mi Calm Calm - N/A   Clear